Location: Newark
(29.9790°N, 31.1340°E)
Time: 09:04:53
(UTC+00:00)

Vanguard 1 - All Passes

Search period start: 25 January 2020 00:00
Search period end: 04 February 2020 00:00
Orbit: 651 x 3833 km, 34.2° (Epoch: 24 January)

Date Brightness Start Highest point End Pass type
(mag) Time Alt. Az. Time Alt. Az. Time Alt. Az.
25 Jan - 12:58:03 10° SW 13:03:12 43° SSE 13:07:23 10° E daylight
25 Jan - 15:18:49 10° W 15:23:10 57° N 15:28:16 10° ENE daylight
25 Jan - 17:38:46 10° WNW 17:43:46 70° NNE 17:51:57 10° E visible
25 Jan - 19:58:13 10° W 20:04:53 52° SSW 20:17:02 10° SE night (unlit)
25 Jan - 22:20:33 10° WSW 22:27:54 20° SSW 22:38:24 10° S visible
26 Jan - 10:59:38 10° S 11:03:42 16° SSE 11:06:57 10° ESE daylight
26 Jan - 13:18:52 10° WSW 13:24:07 66° SSE 13:28:28 10° ENE daylight
26 Jan - 15:39:57 10° W 15:44:15 52° N 15:49:31 10° ENE visible
26 Jan - 17:59:39 10° WNW 18:04:49 85° NNE 18:13:31 10° ESE visible
26 Jan - 20:19:24 10° W 20:26:07 39° SSW 20:37:46 10° SE night (unlit)
26 Jan - 22:44:13 10° SW 22:49:33 14° SSW 22:56:09 10° S visible
27 Jan - 11:19:11 10° SSW 11:24:51 24° SSE 11:28:57 10° E daylight
27 Jan - 13:39:55 10° WSW 13:45:03 88° NNW 13:49:29 10° ENE daylight
27 Jan - 16:01:01 10° WNW 16:05:20 52° N 16:10:52 10° E visible
27 Jan - 18:20:33 10° WNW 18:25:51 76° SSW 18:34:57 10° ESE visible
27 Jan - 20:40:51 10° W 20:47:26 29° SSW 20:58:02 10° SSE night (unlit)
28 Jan - 11:39:28 10° SW 11:45:55 36° SSE 11:50:22 10° E daylight
28 Jan - 14:01:07 10° W 14:06:03 67° NNW 14:10:28 10° ENE daylight
28 Jan - 16:22:01 10° WNW 16:26:25 58° N 16:32:17 10° E visible
28 Jan - 18:41:30 10° W 18:46:54 58° SSW 18:56:09 10° SE visible
28 Jan - 21:02:48 10° WSW 21:08:49 21° SSW 21:17:40 10° SSE night (unlit)
29 Jan - 09:40:38 10° S 09:45:44 15° SSE 09:49:39 10° ESE daylight
29 Jan - 12:00:12 10° SW 12:06:57 52° SSE 12:11:30 10° E daylight
29 Jan - 14:22:22 10° W 14:27:04 55° N 14:31:30 10° ENE daylight
29 Jan - 16:42:58 10° WNW 16:47:27 70° NNE 16:53:43 10° E visible
29 Jan - 19:02:34 10° W 19:08:00 42° SSW 19:17:02 10° SE visible
29 Jan - 21:25:46 10° WSW 21:30:19 14° SSW 21:36:08 10° S night (unlit)
30 Jan - 09:59:51 10° SSW 10:07:02 23° SSE 10:11:56 10° ESE daylight
30 Jan - 12:21:13 10° WSW 12:27:55 74° SSE 12:32:29 10° ENE daylight
30 Jan - 14:43:37 10° W 14:48:08 50° N 14:52:37 10° ENE daylight
30 Jan - 17:03:52 10° WNW 17:08:27 89° NNE 17:15:05 10° ESE visible
30 Jan - 19:23:51 10° W 19:29:10 31° SSW 19:37:32 10° SSE visible
31 Jan - 10:19:55 10° SW 10:28:16 33° SSE 10:33:31 10° E daylight
31 Jan - 12:42:28 10° WSW 12:48:54 83° NNW 12:53:25 10° ENE daylight
31 Jan - 15:04:47 10° WNW 15:09:13 51° N 15:13:49 10° E daylight
31 Jan - 17:24:48 10° WNW 17:29:25 68° SSW 17:36:18 10° ESE visible
31 Jan - 19:45:33 10° WSW 19:50:25 21° SSW 19:57:28 10° SSE visible
01 Feb - 08:20:51 10° S 08:27:14 15° SSE 08:32:06 10° ESE daylight
01 Feb - 10:40:30 10° SW 10:49:25 45° SSE 10:54:45 10° E daylight
01 Feb - 13:03:51 10° W 13:09:53 66° NNW 13:14:20 10° ENE daylight
01 Feb - 15:25:52 10° WNW 15:30:16 57° N 15:35:05 10° E daylight
01 Feb - 17:45:49 10° W 17:50:25 48° SSW 17:57:17 10° SE visible
01 Feb - 20:08:04 10° WSW 20:11:45 14° SSW 20:16:24 10° S night (unlit)
02 Feb - 08:39:38 10° SSW 08:48:42 22° SSE 08:54:46 10° ESE daylight
02 Feb - 11:01:27 10° SW 11:10:29 62° SSE 11:15:47 10° ENE daylight
02 Feb - 13:25:16 10° W 13:30:56 56° N 13:35:17 10° ENE daylight
02 Feb - 15:46:52 10° WNW 15:51:17 71° NNE 15:56:20 10° E visible
02 Feb - 18:06:59 10° W 18:11:26 33° SSW 18:17:55 10° SE visible
03 Feb - 08:59:26 10° SSW 09:10:04 31° SSE 09:16:34 10° E daylight
03 Feb - 11:22:42 10° WSW 11:31:31 81° SSE 11:36:43 10° ENE daylight
03 Feb - 13:46:39 10° W 13:52:00 51° N 13:56:18 10° ENE daylight
03 Feb - 16:07:50 10° WNW 16:12:15 86° SSW 16:17:31 10° ESE visible
03 Feb - 18:28:29 10° WSW 18:32:32 22° SSW 18:38:05 10° SSE visible
